Flag for Mexico Weather past 2 weeks in Guadalajara, Jalisco, Mexico

Now
72 °F

Passing clouds.


Feels Like: 77 °F
Forecast: 55 / 82 °F
Wind: No wind

Location: Don Miguel / Guadalaj

Current Time: Mar 28, 2015 at 10:25:26 PM

Latest Report: Mar 28, 2015 at 8:53 PM


Visibility: 10 mi

Pressure: 29.93 "Hg

Humidity: 33%

Dew point: 41 °F

Location of GuadalajaraLocation

Historic Weather in Guadalajara — Graph

°F

Guadalajara temperature yesterday

Maximum temperature yesterday: 81 °F (at 3:50 PM)
Minimum temperature yesterday: 52 °F (at 5:48 AM)
Average temperature yesterday: 66 °F

Past Weeks' High & Low Weather Summary

 TemperatureHumidityPressure
High84 °F (Mar 24, 3:47 PM)100% (Mar 16, 7:22 PM)30.30 "Hg (Mar 16, 7:22 PM)
Low34 °F (Mar 16, 7:22 PM)11% (Mar 23, 6:52 PM)29.73 "Hg (Mar 14, 5:46 AM)
Average64 °F60%30.08 "Hg
* Reported Mar 13 9:41 PM — Mar 28 8:53 PM, Guadalajara, Weather by CustomWeather, © 2015

Note: Actual official high and low records may vary slightly from our data, if they occured in-between our weather recording intervals... More about our weather records

Advertising

Guadalajara weather history for previous 24 hours

 ConditionsComfort  
Time TempWeatherWind HumidityBarometerVisibility
8:53 PM
Sat, Mar 28
72 °FPassing clouds.No wind33%29.93 "Hg10 mi
7:50 PM75 °FPassing clouds.7 mph25%30.19 "Hg10 mi
6:53 PM79 °FPartly sunny.3 mph21%30.15 "Hg10 mi
4:47 PM82 °FPartly sunny.8 mph16%30.12 "Hg10 mi
3:47 PM82 °FPartly sunny.5 mph21%30.14 "Hg10 mi
2:50 PM82 °FScattered clouds.6 mph25%29.80 "Hg10 mi
12:53 PM79 °FScattered clouds.6 mph32%30.23 "Hg10 mi
11:52 AM75 °FScattered clouds.12 mph41%29.95 "Hg8 mi
10:57 AM72 °FPassing clouds.9 mph44%30.29 "Hg8 mi
9:52 AM68 °FPartly sunny.No wind49%30.30 "Hg8 mi
8:48 AM64 °FBroken clouds.No wind56%30.01 "Hg8 mi
7:52 AM57 °FBroken clouds.No wind72%30.28 "Hg8 mi
5:53 AM59 °FPartly cloudy.No wind63%29.93 "Hg8 mi
4:50 AM61 °FPartly cloudy.No wind59%30.23 "Hg8 mi
3:53 AM59 °FPartly cloudy.No wind59%30.23 "Hg8 mi
2:50 AM63 °FPassing clouds.8 mph56%29.91 "Hg10 mi
1:54 AM63 °FPassing clouds.3 mph52%30.25 "Hg10 mi
12:54 AM63 °FPassing clouds.6 mph52%30.25 "Hg10 mi
11:50 PM
Fri, Mar 27
64 °FPassing clouds.3 mph43%29.93 "Hg10 mi
10:48 PM64 °FPartly cloudy.No wind49%30.21 "Hg10 mi
Weather by CustomWeather, © 2015

See weather overviewHow to use our weather pages